Location: Clarion
(42.7316°N, 93.7330°W)
Time: 08:13:51
(UTC+00:00)

CZ-4C R/B - Pass Details

Date: 22 April 2026
Orbit: 475 x 1502 km, 63.4° (Epoch: 17 May)

Event Time Altitude Azimuth Distance (km) Brightness Sun altitude
Exits shadow 06:36:39 17° 52° (NE) 1,689 4.2 -34.8°
Drops below altitude 10° 06:37:57 10° 46° (NE) 2,188 4.9 -34.8°
Sets 06:40:43 0° 41° (NE) 3,284 6.0 -34.7°
